GW4137 Weather Reports


time (UTC)temp
C
wind
direction
speed
KPH
gust
KPH
rain 1hr
cm
rain 24hr
cm
rain mn
cm
humidity
%
barometer
mb
20260904211558 21 327 20.9 32.2 0.00 0.00 0.00 35 1011.8
20260904210055 21 284 20.9 33.8 0.00 0.00 0.00 36 1011.7
20260904204551 21 311 20.9 35.4 0.00 0.00 0.00 36 1011.6
20260904203059 21 287 17.7 40.2 0.00 0.00 0.00 37 1011.3
20260904201614 21 312 20.9 37.0 0.00 0.00 0.00 38 1011.2
20260904200121 21 294 16.1 33.8 0.00 0.00 0.00 37 1011.0
20260904194610 21 311 16.1 30.6 0.00 0.00 0.00 39 1010.8
20260904193106 21 286 17.7 33.8 0.00 0.00 0.00 38 1010.5
20260904191556 21 282 16.1 25.7 0.00 0.00 0.00 39 1010.1
20260904190110 19 315 17.7 32.2 0.00 0.00 0.00 41 1009.9
20260904184600 20 293 17.7 30.6 0.00 0.00 0.00 40 1010.0
20260904183053 19 286 14.5 27.4 0.00 0.00 0.00 42 1009.9
20260904181550 18 289 16.1 24.1 0.00 0.00 0.00 47 1009.7
20260904180059 17 285 12.9 20.9 0.00 0.00 0.00 51 1009.7
20260904174554 16 281 11.3 20.9 0.00 0.00 0.00 54 1009.6
20260904173130 16 288 12.9 20.9 0.00 0.00 0.00 53 1009.5
20260904171608 16 279 6.4 20.9 0.00 0.00 0.00 55 1009.3
20260904170055 16 273 6.4 12.9 0.00 0.00 0.00 50 1009.1
20260904164557 16 278 4.8 11.3 0.00 0.00 0.00 49 1008.7
20260904163100 16 273 3.2 9.7 0.00 0.00 0.00 50 1008.8
20260904161555 15 271 0.0 6.4 0.00 0.00 0.00 52 1008.7
20260904160054 15 0 3.2 14.5 0.00 0.00 0.00 53 1008.6
20260904154552 15 267 3.2 16.1 0.00 0.00 0.00 55 1008.6
20260904153102 14 262 12.9 24.1 0.00 0.00 0.00 56 1008.5
20260904151606 17 179 9.7 19.3 0.00 0.00 0.00 45 1008.0
20260904150115 16 74 3.2 11.3 0.00 0.00 0.00 48 1007.6
20260904144602 16 71 11.3 17.7 0.00 0.00 0.00 47 1007.1
20260904143108 16 81 11.3 19.3 0.00 0.00 0.00 47 1007.0
20260904141614 16 51 6.4 14.5 0.00 0.00 0.00 50 1007.1
20260904140107 15 58 16.1 20.9 0.00 0.00 0.00 53 1006.4
20260904134559 13 51 1.6 14.5 0.00 0.00 0.00 54 1007.3
20260904133057 12 38 3.2 14.5 0.00 0.00 0.00 60 1007.1
20260904131557 12 39 8.0 12.9 0.00 0.00 0.00 59 1006.9
20260904130106 12 39 4.8 9.7 0.00 0.00 0.00 59 1007.2
20260904124558 12 0 0.0 12.9 0.00 0.00 0.00 59 1006.9
20260904123057 11 39 0.0 3.2 0.00 0.00 0.00 61 1006.5
20260904121556 12 39 4.8 8.0 0.00 0.00 0.00 61 1006.4
20260904120108 12 39 4.8 16.1 0.00 0.00 0.00 59 1006.6
20260904114559 12 40 9.7 16.1 0.00 0.03 0.00 58 1006.7
20260904113055 12 39 9.7 16.1 0.00 0.03 0.00 58 1006.6
20260904111554 13 42 11.3 17.7 0.00 0.03 0.00 57 1006.7
20260904110050 13 46 12.9 19.3 0.00 0.03 0.00 56 1006.7
20260904104559 13 52 14.5 20.9 0.00 0.03 0.00 56 1007.0
20260904103054 13 53 16.1 24.1 0.00 0.03 0.00 55 1007.1
20260904101553 12 44 14.5 19.3 0.00 0.03 0.00 58 1007.2
20260904100058 11 5 4.8 9.7 0.00 0.03 0.00 64 1007.6
20260904094602 12 5 9.7 14.5 0.00 0.05 0.00 62 1007.5
20260904093103 11 349 6.4 12.9 0.00 0.05 0.00 66 1007.6
20260904091558 11 346 3.2 8.0 0.00 0.05 0.00 68 1007.8
20260904090058 10 346 3.2 6.4 0.00 0.05 0.00 71 1007.8
20260904084558 10 346 3.2 8.0 0.00 0.05 0.00 69 1007.9
20260904083056 11 346 6.4 9.7 0.00 0.05 0.00 69 1008.1
20260904081559 10 346 4.8 8.0 0.00 0.05 0.00 76 1008.1
20260904080058 10 346 4.8 8.0 0.00 0.05 0.00 76 1008.2
20260904074556 10 346 4.8 6.4 0.00 0.08 0.00 76 1008.5
20260904073052 10 346 4.8 6.4 0.00 0.08 0.00 74 1008.6
20260904071601 10 346 3.2 4.8 0.00 0.08 0.00 74 1008.9
20260904070059 10 0 0.0 0.0 0.00 0.08 0.00 73 1009.0
20260904064554 11 0 0.0 6.4 0.00 0.10 0.00 70 1009.0
20260904063056 12 346 4.8 8.0 0.00 0.10 0.00 69 1008.9
20260904061554 12 346 1.6 6.4 0.00 0.10 0.00 68 1009.1
20260904060054 12 0 0.0 6.4 0.00 0.10 0.00 66 1009.3
20260904054552 11 0 1.6 6.4 0.00 0.13 0.10 70 1009.4
20260904053101 11 346 0.0 0.0 0.00 0.13 0.10 68 1009.6
20260904051605 12 0 0.0 6.4 0.00 0.13 0.10 66 1009.9
20260904050106 12 0 0.0 0.0 0.00 0.13 0.10 63 1010.1
20260904044601 12 0 0.0 8.0 0.00 0.15 0.10 63 1010.1
20260904043055 12 0 0.0 6.4 0.00 0.15 0.10 65 1009.9
20260904041600 12 335 4.8 9.7 0.00 0.15 0.10 63 1009.6
20260904040104 11 335 4.8 8.0 0.00 0.15 0.10 68 1009.7
20260904034556 10 335 3.2 6.4 0.00 0.18 0.10 72 1009.7
20260904033055 11 335 3.2 6.4 0.00 0.18 0.10 70 1009.9
20260904031552 11 335 4.8 6.4 0.00 0.18 0.10 69 1009.7
20260904030059 12 335 1.6 4.8 0.00 0.18 0.10 65 1009.9
20260904024601 12 335 3.2 6.4 0.00 0.20 0.10 63 1009.6
20260904023101 12 335 3.2 6.4 0.00 0.20 0.10 66 1009.3
20260904021608 13 335 1.6 4.8 0.00 0.20 0.10 61 1009.1
20260904020105 15 335 3.2 4.8 0.00 0.20 0.10 55 1008.8
20260904014602 17 335 1.6 12.9 0.00 0.25 0.10 47 1008.8
20260904013059 18 329 4.8 14.5 0.00 0.25 0.10 42 1008.9
20260904011600 20 334 6.4 14.5 0.00 0.25 0.10 39 1008.9
20260904010055 21 322 8.0 16.1 0.00 0.25 0.10 37 1008.9
20260904004600 21 319 8.0 16.1 0.00 0.30 0.10 37 1008.9
20260904003054 21 311 8.0 19.3 0.00 0.30 0.10 35 1008.7
20260904001558 21 308 11.3 22.5 0.00 0.30 0.10 35 1008.7
20260904000120 22 307 16.1 25.7 0.00 0.30 0.10 34 1008.6
20260903234556 22 296 16.1 33.8 0.00 0.41 0.10 34 1008.2
20260903233056 22 294 16.1 32.2 0.00 0.41 0.10 34 1008.2
20260903231602 22 302 8.0 24.1 0.00 0.41 0.10 34 1008.2
20260903230058 22 263 16.1 25.7 0.00 0.41 0.10 34 1008.2
20260903224610 23 250 11.3 25.7 0.00 0.48 0.10 34 1008.2
20260903223100 23 255 16.1 29.0 0.00 0.48 0.10 33 1007.9
20260903221557 22 261 12.9 25.7 0.00 0.48 0.10 35 1007.6
20260903220053 22 266 16.1 25.7 0.00 0.48 0.10 34 1007.5
20260903214609 23 247 16.1 27.4 0.00 0.48 0.10 31 1007.4
20260903213107 24 281 16.1 32.2 0.00 0.48 0.10 32 1007.2